Weather History for New Iberia, LA

Change the Weather History Date:

Monday, September 16, 2013

  Actual Average Record
Temperature  
Mean Temperature 85 °F 79 °F  
Max Temperature 95 °F 88 °F 96 °F (1997)
Min Temperature 75 °F 69 °F 53 °F (1961)
Degree Days  
Heating Degree Days 0 0  
Month to date heating degree days 0 0  
Since 1 July heating degree days 0 0  
Cooling Degree Days 20 14  
Month to date cooling degree days 326 248  
Year to date cooling degree days 2646 2391  
Growing Degree Days 34 (Base 50)    
Moisture  
Dew Point 72 °F    
Average Humidity 67    
Maximum Humidity 88    
Minimum Humidity 46    
Precipitation  
Precipitation 0.00 in 0.14 in 4.32 in (1971)
Month to date precipitation 1.18 2.53  
Year to date precipitation 54.25 43.38  
Sea Level Pressure  
Sea Level Pressure 30.03 in    
Wind  
Wind Speed 6 mph (East)    
Max Wind Speed 12 mph    
Max Gust Speed 25 mph    
Visibility 10 miles    
Events      
T = Trace of Precipitation, MM = Missing Value Source: NWS Daily Summary

Daily Weather History Graph

Daily Weather History Graph

Search for Another Location

Airport:

Trip Planner

Search our weather history database for the weather conditions in past years. The results will help you decide how hot, cold, wet, or windy it might be!

Date:

Astronomy

Sep. 16, 2013 Rise Set
Actual Time 6:52 AM CDT 7:11 PM CDT
Civil Twilight 6:28 AM CDT 7:35 PM CDT
Nautical Twilight 6:00 AM CDT 8:03 PM CDT
Astronomical Twilight 5:32 AM CDT 8:31 PM CDT
Moon 5:12 PM CDT (9/16) 3:50 AM CDT (9/16)
Length of Visible Light 13h 06m
Length of Day
12h 18m
Waxing Gibbous, 90% of the Moon is Illuminated
Sep 16
Waxing Gibbous
Sep 19
Full
Sep 26
Last Quarter
Oct 4
New
Oct 11
First Quarter

Hourly Weather History & Observations

Time (CDT) Temp. Heat Index Dew Point Humidity Pressure Visibility Wind Dir Wind Speed Gust Speed Precip Events Conditions
12:53 AM 77.0 °F - 72.0 °F 84% 30.05 in 10.0 mi Calm Calm - N/A   Clear
1:53 AM 77.0 °F - 71.1 °F 82% 30.04 in 10.0 mi East 3.5 mph - N/A   Clear
2:53 AM 78.1 °F - 73.9 °F 87% 30.03 in 10.0 mi ENE 5.8 mph - N/A   Clear
3:53 AM 77.0 °F - 73.0 °F 88% 30.02 in 10.0 mi East 3.5 mph - N/A   Clear
4:53 AM 75.9 °F - 72.0 °F 87% 30.02 in 9.0 mi Calm Calm - N/A   Clear
5:53 AM 77.0 °F - 73.0 °F 88% 30.03 in 9.0 mi East 5.8 mph - N/A   Clear
6:53 AM 77.0 °F - 73.0 °F 88% 30.04 in 9.0 mi ENE 5.8 mph 25.3 mph N/A   Clear
7:53 AM 78.1 °F - 73.0 °F 84% 30.04 in 10.0 mi NE 5.8 mph - N/A   Clear
8:53 AM 80.1 °F 84.5 °F 73.9 °F 81% 30.05 in 9.0 mi NNE 6.9 mph - N/A   Clear
9:53 AM 84.0 °F 92.6 °F 75.9 °F 76% 30.06 in 10.0 mi NE 6.9 mph - N/A   Clear
10:53 AM 89.1 °F 97.0 °F 73.0 °F 59% 30.06 in 10.0 mi NE 10.4 mph - N/A   Clear
11:53 AM 91.0 °F 99.3 °F 73.0 °F 55% 30.07 in 10.0 mi East 11.5 mph - N/A   Clear
12:53 PM 91.9 °F 99.5 °F 72.0 °F 52% 30.06 in 10.0 mi ENE 9.2 mph - N/A   Clear
1:53 PM 93.0 °F 100.7 °F 72.0 °F 50% 30.03 in 10.0 mi ENE 10.4 mph - N/A   Partly Cloudy
2:53 PM 93.9 °F 100.3 °F 70.0 °F 46% 30.01 in 10.0 mi East 8.1 mph - N/A   Clear
3:53 PM 93.0 °F 97.9 °F 69.1 °F 45% 30.00 in 10.0 mi ENE 9.2 mph - N/A   Clear
4:53 PM 93.0 °F 99.0 °F 70.0 °F 47% 30.00 in 10.0 mi East 10.4 mph - N/A   Partly Cloudy
5:53 PM 90.0 °F 94.5 °F 69.1 °F 50% 29.99 in 10.0 mi ENE 8.1 mph - N/A   Clear
6:53 PM 88.0 °F 94.7 °F 72.0 °F 59% 30.00 in 10.0 mi ESE 8.1 mph - N/A   Clear
7:53 PM 84.0 °F 89.6 °F 72.0 °F 67% 30.01 in 10.0 mi SE 5.8 mph - N/A   Clear
8:53 PM 82.9 °F 88.0 °F 72.0 °F 69% 30.03 in 10.0 mi SSE 3.5 mph - N/A   Clear
9:53 PM 82.0 °F 87.4 °F 73.0 °F 74% 30.04 in 10.0 mi ESE 5.8 mph - N/A   Clear
10:53 PM 80.1 °F 84.2 °F 73.0 °F 79% 30.05 in 10.0 mi SE 3.5 mph - N/A   Clear
11:53 PM 81.0 °F 85.8 °F 73.0 °F 77% 30.05 in 10.0 mi Calm Calm - N/A   Clear